Time,TemperatureF,DewpointF,PressureIn,WindDirection,WindDirectionDegrees,WindSpeedMPH,WindSpeedGustMPH,Humidity,HourlyPrecipIn,Conditions,Clouds,dailyrainin,SoftwareType,DateUTC
2013-05-15 00:02:00,74.0,59.7,29.95,West,273,3.0,5.0,61,0.00,,,0.00,Wunderground v.1.15,2013-05-15 05:02:00,
2013-05-15 00:08:00,73.7,59.4,29.95,WNW,285,3.0,5.0,61,0.00,,,0.00,Wunderground v.1.15,2013-05-15 05:08:00,
2013-05-15 00:13:00,73.7,59.4,29.95,West,274,4.0,5.0,61,0.00,,,0.00,Wunderground v.1.15,2013-05-15 05:13:00,
2013-05-15 00:19:00,73.6,59.3,29.95,West,263,5.0,8.0,61,0.00,,,0.00,Wunderground v.1.15,2013-05-15 05:19:00,
2013-05-15 00:24:00,73.3,59.0,29.95,WNW,286,4.0,5.0,61,0.00,,,0.00,Wunderground v.1.15,2013-05-15 05:24:00,
2013-05-15 00:30:00,73.1,59.3,29.95,WNW,293,2.0,3.0,62,0.00,,,0.00,Wunderground v.1.15,2013-05-15 05:30:00,
2013-05-15 00:35:00,73.0,59.2,29.95,West,277,9.0,9.0,62,0.00,,,0.00,Wunderground v.1.15,2013-05-15 05:35:00,
2013-05-15 00:41:00,72.9,59.1,29.95,WNW,290,2.0,4.0,62,0.00,,,0.00,Wunderground v.1.15,2013-05-15 05:41:00,
2013-05-15 00:46:00,72.8,59.0,29.95,West,266,3.0,5.0,62,0.00,,,0.00,Wunderground v.1.15,2013-05-15 05:46:00,
2013-05-15 00:51:00,72.6,59.3,29.95,WNW,294,0.0,3.0,63,0.00,,,0.00,Wunderground v.1.15,2013-05-15 05:51:00,
2013-05-15 00:56:00,72.5,59.2,29.96,WSW,248,3.0,4.0,63,0.00,,,0.00,Wunderground v.1.15,2013-05-15 05:56:00,
2013-05-15 01:02:00,72.4,59.1,29.96,WNW,293,2.0,3.0,63,0.00,,,0.00,Wunderground v.1.15,2013-05-15 06:02:00,
2013-05-15 01:08:00,72.3,59.0,29.96,WNW,285,3.0,6.0,63,0.00,,,0.00,Wunderground v.1.15,2013-05-15 06:08:00,
2013-05-15 01:13:00,72.1,58.8,29.96,West,273,4.0,4.0,63,0.00,,,0.00,Wunderground v.1.15,2013-05-15 06:13:00,
2013-05-15 01:18:00,72.0,58.7,29.96,West,260,2.0,4.0,63,0.00,,,0.00,Wunderground v.1.15,2013-05-15 06:18:00,
2013-05-15 01:24:00,72.0,58.7,29.96,WNW,300,1.0,5.0,63,0.00,,,0.00,Wunderground v.1.15,2013-05-15 06:24:00,
2013-05-15 01:30:00,71.7,58.4,29.96,WSW,248,4.0,4.0,63,0.00,,,0.00,Wunderground v.1.15,2013-05-15 06:30:00,
2013-05-15 01:35:00,71.7,58.4,29.96,WSW,246,2.0,4.0,63,0.00,,,0.00,Wunderground v.1.15,2013-05-15 06:35:00,
2013-05-15 01:40:00,71.6,58.3,29.96,WNW,286,2.0,3.0,63,0.00,,,0.00,Wunderground v.1.15,2013-05-15 06:40:00,
2013-05-15 01:46:00,71.4,58.6,29.96,West,276,3.0,3.0,64,0.00,,,0.00,Wunderground v.1.15,2013-05-15 06:46:00,
2013-05-15 01:51:00,71.4,58.6,29.97,WSW,240,2.0,4.0,64,0.00,,,0.00,Wunderground v.1.15,2013-05-15 06:51:00,
2013-05-15 01:56:00,71.2,58.4,29.97,SSW,210,2.0,4.0,64,0.00,,,0.00,Wunderground v.1.15,2013-05-15 06:56:00,
2013-05-15 02:01:00,71.1,58.3,29.97,WSW,248,4.0,4.0,64,0.00,,,0.00,Wunderground v.1.15,2013-05-15 07:01:00,
2013-05-15 02:06:00,71.0,58.6,29.97,WNW,288,3.0,6.0,65,0.00,,,0.00,Wunderground v.1.15,2013-05-15 07:06:00,
2013-05-15 02:11:00,70.9,58.5,29.97,WSW,250,3.0,3.0,65,0.00,,,0.00,Wunderground v.1.15,2013-05-15 07:11:00,
2013-05-15 02:16:00,70.8,58.4,29.97,WSW,245,1.0,5.0,65,0.00,,,0.00,Wunderground v.1.15,2013-05-15 07:16:00,
2013-05-15 02:21:00,70.6,58.3,29.97,West,260,4.0,5.0,65,0.00,,,0.00,Wunderground v.1.15,2013-05-15 07:21:00,
2013-05-15 02:26:00,70.5,58.6,29.97,West,276,2.0,5.0,66,0.00,,,0.00,Wunderground v.1.15,2013-05-15 07:26:00,
2013-05-15 02:31:00,70.5,58.6,29.97,West,269,5.0,5.0,66,0.00,,,0.00,Wunderground v.1.15,2013-05-15 07:31:00,
2013-05-15 02:36:00,70.4,58.5,29.97,West,278,3.0,6.0,66,0.00,,,0.00,Wunderground v.1.15,2013-05-15 07:36:00,
2013-05-15 02:41:00,70.3,58.4,29.97,West,265,3.0,5.0,66,0.00,,,0.00,Wunderground v.1.15,2013-05-15 07:41:00,
2013-05-15 02:46:00,70.3,58.4,29.97,WNW,298,2.0,5.0,66,0.00,,,0.00,Wunderground v.1.15,2013-05-15 07:46:00,
2013-05-15 02:51:00,70.1,58.2,29.97,West,281,1.0,3.0,66,0.00,,,0.00,Wunderground v.1.15,2013-05-15 07:51:00,
2013-05-15 02:56:00,69.9,58.0,29.97,WNW,283,1.0,3.0,66,0.00,,,0.00,Wunderground v.1.15,2013-05-15 07:56:00,
2013-05-15 03:01:00,69.8,57.9,29.97,West,267,1.0,1.0,66,0.00,,,0.00,Wunderground v.1.15,2013-05-15 08:01:00,
2013-05-15 03:06:00,69.7,57.8,29.97,West,275,1.0,4.0,66,0.00,,,0.00,Wunderground v.1.15,2013-05-15 08:06:00,
2013-05-15 03:11:00,69.6,58.2,29.97,WSW,250,2.0,3.0,67,0.00,,,0.00,Wunderground v.1.15,2013-05-15 08:11:00,
2013-05-15 03:16:00,69.6,58.2,29.97,WSW,246,1.0,3.0,67,0.00,,,0.00,Wunderground v.1.15,2013-05-15 08:16:00,
2013-05-15 03:21:00,69.5,57.6,29.97,West,262,1.0,3.0,66,0.00,,,0.00,Wunderground v.1.15,2013-05-15 08:21:00,
2013-05-15 03:26:00,69.3,57.9,29.97,WSW,239,3.0,4.0,67,0.00,,,0.00,Wunderground v.1.15,2013-05-15 08:26:00,
2013-05-15 03:31:00,69.4,57.5,29.98,WSW,252,2.0,3.0,66,0.00,,,0.00,Wunderground v.1.15,2013-05-15 08:31:00,
2013-05-15 03:36:00,69.3,57.5,29.98,West,264,2.0,5.0,66,0.00,,,0.00,Wunderground v.1.15,2013-05-15 08:36:00,
2013-05-15 03:41:00,69.2,57.4,29.98,West,266,2.0,3.0,66,0.00,,,0.00,Wunderground v.1.15,2013-05-15 08:41:00,
2013-05-15 03:46:00,69.0,57.6,29.98,WSW,255,1.0,4.0,67,0.00,,,0.00,Wunderground v.1.15,2013-05-15 08:46:00,
2013-05-15 03:51:00,68.8,57.4,29.98,West,265,2.0,3.0,67,0.00,,,0.00,Wunderground v.1.15,2013-05-15 08:51:00,
2013-05-15 03:57:00,68.6,57.6,29.98,WSW,242,2.0,3.0,68,0.00,,,0.00,Wunderground v.1.15,2013-05-15 08:57:00,
2013-05-15 04:02:00,68.4,57.4,29.98,WSW,255,0.0,2.0,68,0.00,,,0.00,Wunderground v.1.15,2013-05-15 09:02:00,
2013-05-15 04:07:00,68.3,57.3,29.99,West,259,2.0,5.0,68,0.00,,,0.00,Wunderground v.1.15,2013-05-15 09:07:00,
2013-05-15 04:12:00,68.3,57.3,29.99,West,263,1.0,4.0,68,0.00,,,0.00,Wunderground v.1.15,2013-05-15 09:12:00,
2013-05-15 04:17:00,68.2,57.2,29.99,West,264,2.0,5.0,68,0.00,,,0.00,Wunderground v.1.15,2013-05-15 09:17:00,
2013-05-15 04:22:00,68.2,57.2,29.99,WSW,245,2.0,4.0,68,0.00,,,0.00,Wunderground v.1.15,2013-05-15 09:22:00,
2013-05-15 04:27:00,68.2,57.2,29.99,WSW,249,3.0,4.0,68,0.00,,,0.00,Wunderground v.1.15,2013-05-15 09:27:00,
2013-05-15 04:32:00,68.1,56.7,29.99,WSW,245,1.0,4.0,67,0.00,,,0.00,Wunderground v.1.15,2013-05-15 09:32:00,
2013-05-15 04:37:00,67.9,56.9,29.99,West,259,1.0,4.0,68,0.00,,,0.00,Wunderground v.1.15,2013-05-15 09:37:00,
2013-05-15 04:42:00,67.7,56.8,29.99,West,279,1.0,3.0,68,0.00,,,0.00,Wunderground v.1.15,2013-05-15 09:42:00,
2013-05-15 04:47:00,67.6,56.7,30.00,West,263,1.0,6.0,68,0.00,,,0.00,Wunderground v.1.15,2013-05-15 09:47:00,
2013-05-15 04:52:00,67.5,56.6,30.00,SW,233,2.0,4.0,68,0.00,,,0.00,Wunderground v.1.15,2013-05-15 09:52:00,
2013-05-15 04:57:00,67.5,56.6,30.00,WSW,252,2.0,5.0,68,0.00,,,0.00,Wunderground v.1.15,2013-05-15 09:57:00,
2013-05-15 05:02:00,67.4,56.5,30.00,West,260,2.0,3.0,68,0.00,,,0.00,Wunderground v.1.15,2013-05-15 10:02:00,
2013-05-15 05:07:00,67.3,56.8,30.00,West,266,1.0,4.0,69,0.00,,,0.00,Wunderground v.1.15,2013-05-15 10:07:00,
2013-05-15 05:12:00,67.2,56.7,30.00,West,259,1.0,5.0,69,0.00,,,0.00,Wunderground v.1.15,2013-05-15 10:12:00,
2013-05-15 05:17:00,67.0,56.5,30.00,West,263,1.0,5.0,69,0.00,,,0.00,Wunderground v.1.15,2013-05-15 10:17:00,
2013-05-15 05:22:00,67.0,56.5,30.00,West,259,2.0,4.0,69,0.00,,,0.00,Wunderground v.1.15,2013-05-15 10:22:00,
2013-05-15 05:27:00,66.9,56.4,30.00,West,271,4.0,5.0,69,0.00,,,0.00,Wunderground v.1.15,2013-05-15 10:27:00,
2013-05-15 05:32:00,67.1,56.6,30.00,West,271,3.0,5.0,69,0.00,,,0.00,Wunderground v.1.15,2013-05-15 10:32:00,
2013-05-15 05:37:00,67.1,56.2,30.00,West,264,2.0,5.0,68,0.00,,,0.00,Wunderground v.1.15,2013-05-15 10:37:00,
2013-05-15 05:42:00,67.2,56.3,30.01,West,269,2.0,5.0,68,0.00,,,0.00,Wunderground v.1.15,2013-05-15 10:42:00,
2013-05-15 05:47:00,67.1,56.2,30.01,West,260,4.0,6.0,68,0.00,,,0.00,Wunderground v.1.15,2013-05-15 10:47:00,
2013-05-15 05:52:00,67.0,56.1,30.01,West,259,1.0,4.0,68,0.00,,,0.00,Wunderground v.1.15,2013-05-15 10:52:00,
2013-05-15 05:57:00,66.8,55.9,30.01,WSW,249,5.0,5.0,68,0.00,,,0.00,Wunderground v.1.15,2013-05-15 10:57:00,
2013-05-15 06:02:00,66.8,56.3,30.01,West,262,3.0,4.0,69,0.00,,,0.00,Wunderground v.1.15,2013-05-15 11:02:00,
2013-05-15 06:07:00,66.8,56.3,30.01,WSW,253,2.0,4.0,69,0.00,,,0.00,Wunderground v.1.15,2013-05-15 11:07:00,
2013-05-15 06:14:00,66.7,56.2,30.01,WSW,252,1.0,3.0,69,0.00,,,0.00,Wunderground v.1.15,2013-05-15 11:14:00,
2013-05-15 06:19:00,66.7,56.2,30.01,West,259,1.0,3.0,69,0.00,,,0.00,Wunderground v.1.15,2013-05-15 11:19:00,
2013-05-15 06:24:00,66.9,56.4,30.01,WSW,243,1.0,4.0,69,0.00,,,0.00,Wunderground v.1.15,2013-05-15 11:24:00,
2013-05-15 06:29:00,67.0,56.5,30.01,WSW,249,1.0,4.0,69,0.00,,,0.00,Wunderground v.1.15,2013-05-15 11:29:00,
2013-05-15 06:35:00,67.0,56.5,30.01,WSW,238,3.0,3.0,69,0.00,,,0.00,Wunderground v.1.15,2013-05-15 11:35:00,
2013-05-15 06:40:00,67.1,56.2,30.01,WSW,249,1.0,2.0,68,0.00,,,0.00,Wunderground v.1.15,2013-05-15 11:40:00,
2013-05-15 06:45:00,67.2,56.7,30.02,SW,233,2.0,4.0,69,0.00,,,0.00,Wunderground v.1.15,2013-05-15 11:45:00,
2013-05-15 06:50:00,67.4,56.9,30.02,WSW,248,3.0,3.0,69,0.00,,,0.00,Wunderground v.1.15,2013-05-15 11:50:00,
2013-05-15 06:55:00,67.6,56.7,30.02,West,276,1.0,3.0,68,0.00,,,0.00,Wunderground v.1.15,2013-05-15 11:55:00,
2013-05-15 07:01:00,67.8,56.9,30.02,WSW,238,2.0,4.0,68,0.00,,,0.00,Wunderground v.1.15,2013-05-15 12:01:00,
2013-05-15 07:06:00,68.1,56.7,30.02,WSW,240,1.0,4.0,67,0.00,,,0.00,Wunderground v.1.15,2013-05-15 12:06:00,
2013-05-15 07:11:00,68.5,57.1,30.02,West,264,2.0,3.0,67,0.00,,,0.00,Wunderground v.1.15,2013-05-15 12:11:00,
2013-05-15 07:16:00,68.8,57.4,30.02,West,269,1.0,4.0,67,0.00,,,0.00,Wunderground v.1.15,2013-05-15 12:16:00,
2013-05-15 07:22:00,69.2,57.4,30.02,West,276,2.0,4.0,66,0.00,,,0.00,Wunderground v.1.15,2013-05-15 12:22:00,
2013-05-15 07:27:00,69.5,57.2,30.02,WSW,248,1.0,5.0,65,0.00,,,0.00,Wunderground v.1.15,2013-05-15 12:27:00,
2013-05-15 07:32:00,69.9,57.6,30.02,WSW,245,1.0,4.0,65,0.00,,,0.00,Wunderground v.1.15,2013-05-15 12:32:00,
2013-05-15 07:37:00,70.1,57.4,30.02,West,269,3.0,7.0,64,0.00,,,0.00,Wunderground v.1.15,2013-05-15 12:37:00,
2013-05-15 07:43:00,70.5,57.7,30.02,NNW,342,1.0,7.0,64,0.00,,,0.00,Wunderground v.1.15,2013-05-15 12:43:00,
2013-05-15 07:48:00,70.8,58.0,30.02,WSW,252,2.0,7.0,64,0.00,,,0.00,Wunderground v.1.15,2013-05-15 12:48:00,
2013-05-15 07:54:00,71.1,57.9,30.02,West,266,3.0,6.0,63,0.00,,,0.00,Wunderground v.1.15,2013-05-15 12:54:00,
2013-05-15 07:59:00,71.4,58.1,30.03,WSW,256,6.0,6.0,63,0.00,,,0.00,Wunderground v.1.15,2013-05-15 12:59:00,
2013-05-15 08:05:00,71.6,58.3,30.03,West,269,4.0,8.0,63,0.00,,,0.00,Wunderground v.1.15,2013-05-15 13:05:00,
2013-05-15 08:10:00,71.9,58.2,30.03,WSW,250,7.0,11.0,62,0.00,,,0.00,Wunderground v.1.15,2013-05-15 13:10:00,
2013-05-15 08:15:00,72.2,57.5,30.03,NW,305,6.0,12.0,60,0.00,,,0.00,Wunderground v.1.15,2013-05-15 13:15:00,
2013-05-15 08:20:00,72.6,58.4,30.03,South,179,4.0,5.0,61,0.00,,,0.00,Wunderground v.1.15,2013-05-15 13:20:00,
2013-05-15 08:25:00,72.8,58.1,30.03,NW,304,7.0,10.0,60,0.00,,,0.00,Wunderground v.1.15,2013-05-15 13:25:00,
2013-05-15 08:31:00,73.0,57.8,30.03,WNW,300,8.0,11.0,59,0.00,,,0.00,Wunderground v.1.15,2013-05-15 13:31:00,
2013-05-15 08:36:00,73.4,58.2,30.03,NW,307,6.0,11.0,59,0.00,,,0.00,Wunderground v.1.15,2013-05-15 13:36:00,
2013-05-15 08:41:00,73.7,58.0,30.03,WNW,296,5.0,10.0,58,0.00,,,0.00,Wunderground v.1.15,2013-05-15 13:41:00,
2013-05-15 08:46:00,74.0,58.8,30.03,WNW,300,7.0,10.0,59,0.00,,,0.00,Wunderground v.1.15,2013-05-15 13:46:00,
2013-05-15 08:51:00,74.1,57.9,30.03,NW,320,4.0,10.0,57,0.00,,,0.00,Wunderground v.1.15,2013-05-15 13:51:00,
2013-05-15 08:57:00,74.4,58.2,30.04,NW,308,10.0,10.0,57,0.00,,,0.00,Wunderground v.1.15,2013-05-15 13:57:00,
2013-05-15 09:02:00,74.8,59.0,30.04,WNW,288,4.0,8.0,58,0.00,,,0.00,Wunderground v.1.15,2013-05-15 14:02:00,
2013-05-15 09:08:00,75.2,58.4,30.04,West,266,3.0,8.0,56,0.00,,,0.00,Wunderground v.1.15,2013-05-15 14:08:00,
2013-05-15 09:13:00,75.4,59.1,30.04,West,259,9.0,9.0,57,0.00,,,0.00,Wunderground v.1.15,2013-05-15 14:13:00,
2013-05-15 09:18:00,75.6,59.3,30.04,WNW,302,7.0,11.0,57,0.00,,,0.00,Wunderground v.1.15,2013-05-15 14:18:00,
2013-05-15 09:23:00,75.8,58.5,30.03,WNW,285,3.0,11.0,55,0.00,,,0.00,Wunderground v.1.15,2013-05-15 14:23:00,
2013-05-15 09:28:00,76.1,59.8,30.03,WSW,240,3.0,11.0,57,0.00,,,0.00,Wunderground v.1.15,2013-05-15 14:28:00,
2013-05-15 09:33:00,76.4,59.0,30.03,SW,214,5.0,8.0,55,0.00,,,0.00,Wunderground v.1.15,2013-05-15 14:33:00,
2013-05-15 09:39:00,76.8,59.9,30.03,West,273,4.0,8.0,56,0.00,,,0.00,Wunderground v.1.15,2013-05-15 14:39:00,
2013-05-15 09:44:00,77.0,59.1,30.03,WNW,295,9.0,10.0,54,0.00,,,0.00,Wunderground v.1.15,2013-05-15 14:44:00,
2013-05-15 09:49:00,77.1,58.6,30.03,NW,308,5.0,12.0,53,0.00,,,0.00,Wunderground v.1.15,2013-05-15 14:49:00,
2013-05-15 09:55:00,77.2,59.3,30.03,WSW,245,8.0,13.0,54,0.00,,,0.00,Wunderground v.1.15,2013-05-15 14:55:00,
2013-05-15 10:01:00,77.5,59.0,30.03,WNW,302,9.0,12.0,53,0.00,,,0.00,Wunderground v.1.15,2013-05-15 15:01:00,
2013-05-15 10:06:00,77.5,58.5,30.02,WNW,290,5.0,12.0,52,0.00,,,0.00,Wunderground v.1.15,2013-05-15 15:06:00,
2013-05-15 10:11:00,77.8,59.3,30.02,West,264,7.0,8.0,53,0.00,,,0.00,Wunderground v.1.15,2013-05-15 15:11:00,
2013-05-15 10:16:00,77.9,58.3,30.02,WNW,287,9.0,18.0,51,0.00,,,0.00,Wunderground v.1.15,2013-05-15 15:16:00,
2013-05-15 10:21:00,78.3,60.3,30.02,WNW,287,7.0,9.0,54,0.00,,,0.00,Wunderground v.1.15,2013-05-15 15:21:00,
2013-05-15 10:27:00,78.1,59.0,30.02,West,269,4.0,12.0,52,0.00,,,0.00,Wunderground v.1.15,2013-05-15 15:27:00,
2013-05-15 10:32:00,78.5,58.9,30.02,WNW,297,5.0,7.0,51,0.00,,,0.00,Wunderground v.1.15,2013-05-15 15:32:00,
2013-05-15 10:38:00,78.4,58.2,30.02,West,269,6.0,13.0,50,0.00,,,0.00,Wunderground v.1.15,2013-05-15 15:38:00,
2013-05-15 10:43:00,78.5,59.4,30.02,WNW,293,7.0,10.0,52,0.00,,,0.00,Wunderground v.1.15,2013-05-15 15:43:00,
2013-05-15 10:48:00,78.6,58.4,30.02,WNW,301,5.0,16.0,50,0.00,,,0.00,Wunderground v.1.15,2013-05-15 15:48:00,
2013-05-15 10:54:00,78.8,58.6,30.02,WNW,289,11.0,17.0,50,0.00,,,0.00,Wunderground v.1.15,2013-05-15 15:54:00,
2013-05-15 10:59:00,79.1,58.9,30.02,WSW,255,6.0,17.0,50,0.00,,,0.00,Wunderground v.1.15,2013-05-15 15:59:00,
2013-05-15 11:04:00,79.4,59.1,30.02,West,276,7.0,14.0,50,0.00,,,0.00,Wunderground v.1.15,2013-05-15 16:04:00,
2013-05-15 11:09:00,79.5,57.5,30.02,WSW,248,9.0,14.0,47,0.00,,,0.00,Wunderground v.1.15,2013-05-15 16:09:00,
2013-05-15 11:14:00,79.8,58.4,30.02,SW,225,8.0,15.0,48,0.00,,,0.00,Wunderground v.1.15,2013-05-15 16:14:00,
2013-05-15 11:19:00,79.7,57.7,30.02,NW,310,8.0,15.0,47,0.00,,,0.00,Wunderground v.1.15,2013-05-15 16:19:00,
2013-05-15 11:25:00,79.6,58.2,30.02,WNW,297,7.0,15.0,48,0.00,,,0.00,Wunderground v.1.15,2013-05-15 16:25:00,
2013-05-15 11:30:00,79.8,58.4,30.02,NW,311,8.0,8.0,48,0.00,,,0.00,Wunderground v.1.15,2013-05-15 16:30:00,
2013-05-15 11:35:00,80.0,58.0,30.02,WNW,290,9.0,12.0,47,0.00,,,0.00,Wunderground v.1.15,2013-05-15 16:35:00,
2013-05-15 11:40:00,79.9,57.9,30.02,WNW,301,14.0,14.0,47,0.00,,,0.00,Wunderground v.1.15,2013-05-15 16:40:00,
2013-05-15 11:46:00,80.2,58.7,30.01,WSW,252,3.0,14.0,48,0.00,,,0.00,Wunderground v.1.15,2013-05-15 16:46:00,
2013-05-15 11:51:00,80.8,59.3,30.01,West,264,8.0,9.0,48,0.00,,,0.00,Wunderground v.1.15,2013-05-15 16:51:00,
2013-05-15 11:56:00,81.1,59.0,30.01,WNW,297,8.0,13.0,47,0.00,,,0.00,Wunderground v.1.15,2013-05-15 16:56:00,
2013-05-15 12:01:00,81.0,59.5,30.01,WNW,298,4.0,7.0,48,0.00,,,0.00,Wunderground v.1.15,2013-05-15 17:01:00,
2013-05-15 12:07:00,81.1,58.4,30.00,WNW,302,5.0,15.0,46,0.00,,,0.00,Wunderground v.1.15,2013-05-15 17:07:00,
2013-05-15 12:12:00,81.2,59.1,30.00,West,263,5.0,9.0,47,0.00,,,0.00,Wunderground v.1.15,2013-05-15 17:12:00,
2013-05-15 12:17:00,81.4,59.2,30.00,WSW,250,4.0,9.0,47,0.00,,,0.00,Wunderground v.1.15,2013-05-15 17:17:00,
2013-05-15 12:22:00,81.7,60.1,30.00,SW,228,5.0,8.0,48,0.00,,,0.00,Wunderground v.1.15,2013-05-15 17:22:00,
2013-05-15 12:27:00,81.7,58.9,30.00,West,278,7.0,10.0,46,0.00,,,0.00,Wunderground v.1.15,2013-05-15 17:27:00,
2013-05-15 12:32:00,81.8,58.4,29.99,West,269,3.0,11.0,45,0.00,,,0.00,Wunderground v.1.15,2013-05-15 17:32:00,
2013-05-15 12:38:00,81.9,57.8,29.99,West,273,4.0,11.0,44,0.00,,,0.00,Wunderground v.1.15,2013-05-15 17:38:00,
2013-05-15 12:43:00,82.0,57.9,29.99,West,259,4.0,12.0,44,0.00,,,0.00,Wunderground v.1.15,2013-05-15 17:43:00,
2013-05-15 12:49:00,82.1,58.0,29.99,West,273,3.0,12.0,44,0.00,,,0.00,Wunderground v.1.15,2013-05-15 17:49:00,
2013-05-15 12:55:00,82.5,59.0,29.99,WSW,257,4.0,10.0,45,0.00,,,0.00,Wunderground v.1.15,2013-05-15 17:55:00,
2013-05-15 13:00:00,82.7,59.2,29.99,West,262,3.0,5.0,45,0.00,,,0.00,Wunderground v.1.15,2013-05-15 18:00:00,
2013-05-15 13:05:00,82.7,57.9,29.99,SW,228,8.0,8.0,43,0.00,,,0.00,Wunderground v.1.15,2013-05-15 18:05:00,
2013-05-15 13:10:00,82.6,57.8,29.98,West,281,4.0,9.0,43,0.00,,,0.00,Wunderground v.1.15,2013-05-15 18:10:00,
2013-05-15 13:16:00,82.2,57.5,29.98,WSW,255,7.0,10.0,43,0.00,,,0.00,Wunderground v.1.15,2013-05-15 18:16:00,
2013-05-15 13:22:00,82.3,58.2,29.98,SW,221,3.0,9.0,44,0.00,,,0.00,Wunderground v.1.15,2013-05-15 18:22:00,
2013-05-15 13:27:00,82.3,56.2,29.98,WNW,285,3.0,11.0,41,0.00,,,0.00,Wunderground v.1.15,2013-05-15 18:27:00,
2013-05-15 13:32:00,82.3,56.9,29.97,WSW,249,6.0,11.0,42,0.00,,,0.00,Wunderground v.1.15,2013-05-15 18:32:00,
2013-05-15 13:37:00,82.7,58.6,29.97,West,267,2.0,11.0,44,0.00,,,0.00,Wunderground v.1.15,2013-05-15 18:37:00,
2013-05-15 13:43:00,83.1,57.6,29.97,WNW,293,7.0,12.0,42,0.00,,,0.00,Wunderground v.1.15,2013-05-15 18:43:00,
2013-05-15 13:48:00,83.3,59.7,29.97,NW,320,3.0,12.0,45,0.00,,,0.00,Wunderground v.1.15,2013-05-15 18:48:00,
2013-05-15 13:53:00,83.6,58.1,29.97,SSW,200,2.0,9.0,42,0.00,,,0.00,Wunderground v.1.15,2013-05-15 18:53:00,
2013-05-15 13:59:00,83.1,58.3,29.97,South,184,4.0,12.0,43,0.00,,,0.00,Wunderground v.1.15,2013-05-15 18:59:00,
2013-05-15 14:04:00,82.9,57.5,29.97,West,271,4.0,14.0,42,0.00,,,0.00,Wunderground v.1.15,2013-05-15 19:04:00,
2013-05-15 14:09:00,83.0,58.2,29.96,West,281,4.0,14.0,43,0.00,,,0.00,Wunderground v.1.15,2013-05-15 19:09:00,
2013-05-15 14:14:00,83.1,59.6,29.96,West,273,7.0,10.0,45,0.00,,,0.00,Wunderground v.1.15,2013-05-15 19:14:00,
2013-05-15 14:19:00,83.4,59.2,29.96,WNW,297,4.0,6.0,44,0.00,,,0.00,Wunderground v.1.15,2013-05-15 19:19:00,
2013-05-15 14:25:00,83.5,59.9,29.96,WNW,283,8.0,8.0,45,0.00,,,0.00,Wunderground v.1.15,2013-05-15 19:25:00,
2013-05-15 14:30:00,83.5,59.3,29.96,SSW,194,4.0,5.0,44,0.00,,,0.00,Wunderground v.1.15,2013-05-15 19:30:00,
2013-05-15 14:35:00,83.3,60.4,29.95,West,266,7.0,9.0,46,0.00,,,0.00,Wunderground v.1.15,2013-05-15 19:35:00,
2013-05-15 14:40:00,83.6,60.0,29.95,WSW,253,5.0,5.0,45,0.00,,,0.00,Wunderground v.1.15,2013-05-15 19:40:00,
2013-05-15 14:45:00,83.8,60.2,29.95,WSW,256,2.0,11.0,45,0.00,,,0.00,Wunderground v.1.15,2013-05-15 19:45:00,
2013-05-15 14:50:00,84.0,60.4,29.95,West,273,5.0,5.0,45,0.00,,,0.00,Wunderground v.1.15,2013-05-15 19:50:00,
2013-05-15 14:55:00,83.7,61.3,29.95,West,266,12.0,12.0,47,0.00,,,0.00,Wunderground v.1.15,2013-05-15 19:55:00,
2013-05-15 15:00:00,83.3,60.4,29.95,WNW,288,7.0,8.0,46,0.00,,,0.00,Wunderground v.1.15,2013-05-15 20:00:00,
2013-05-15 15:06:00,82.9,61.2,29.95,WSW,238,8.0,10.0,48,0.00,,,0.00,Wunderground v.1.15,2013-05-15 20:06:00,
2013-05-15 15:11:00,83.1,60.8,29.94,WNW,289,4.0,6.0,47,0.00,,,0.00,Wunderground v.1.15,2013-05-15 20:11:00,
2013-05-15 15:16:00,83.3,61.6,29.94,WSW,257,2.0,8.0,48,0.00,,,0.00,Wunderground v.1.15,2013-05-15 20:16:00,
2013-05-15 15:21:00,83.4,61.1,29.94,West,269,4.0,10.0,47,0.00,,,0.00,Wunderground v.1.15,2013-05-15 20:21:00,
2013-05-15 15:26:00,83.4,61.1,29.94,WNW,288,3.0,10.0,47,0.00,,,0.00,Wunderground v.1.15,2013-05-15 20:26:00,
2013-05-15 15:31:00,82.9,60.6,29.94,WSW,255,4.0,7.0,47,0.00,,,0.00,Wunderground v.1.15,2013-05-15 20:31:00,
2013-05-15 15:37:00,83.2,62.1,29.94,NW,312,5.0,8.0,49,0.00,,,0.00,Wunderground v.1.15,2013-05-15 20:37:00,
2013-05-15 15:42:00,83.5,61.1,29.94,SSW,207,3.0,8.0,47,0.00,,,0.00,Wunderground v.1.15,2013-05-15 20:42:00,
2013-05-15 15:47:00,83.7,61.9,29.93,WNW,297,6.0,10.0,48,0.00,,,0.00,Wunderground v.1.15,2013-05-15 20:47:00,
2013-05-15 15:52:00,83.8,63.2,29.93,NW,312,4.0,5.0,50,0.00,,,0.00,Wunderground v.1.15,2013-05-15 20:52:00,
2013-05-15 15:57:00,83.9,61.5,29.93,WNW,291,8.0,13.0,47,0.00,,,0.00,Wunderground v.1.15,2013-05-15 20:57:00,
2013-05-15 16:02:00,83.7,60.7,29.93,SW,235,5.0,8.0,46,0.00,,,0.00,Wunderground v.1.15,2013-05-15 21:02:00,
2013-05-15 16:07:00,83.8,61.4,29.93,West,273,2.0,8.0,47,0.00,,,0.00,Wunderground v.1.15,2013-05-15 21:07:00,
2013-05-15 16:12:00,83.6,61.8,29.93,SSW,204,1.0,6.0,48,0.00,,,0.00,Wunderground v.1.15,2013-05-15 21:12:00,
2013-05-15 16:17:00,83.4,61.7,29.92,WSW,239,9.0,11.0,48,0.00,,,0.00,Wunderground v.1.15,2013-05-15 21:17:00,
2013-05-15 16:22:00,83.4,61.1,29.92,South,188,4.0,13.0,47,0.00,,,0.00,Wunderground v.1.15,2013-05-15 21:22:00,
2013-05-15 16:28:00,83.3,61.6,29.92,West,278,8.0,13.0,48,0.00,,,0.00,Wunderground v.1.15,2013-05-15 21:28:00,
2013-05-15 16:33:00,83.0,60.7,29.92,SSW,213,4.0,11.0,47,0.00,,,0.00,Wunderground v.1.15,2013-05-15 21:33:00,
2013-05-15 16:38:00,82.9,61.2,29.92,West,274,5.0,11.0,48,0.00,,,0.00,Wunderground v.1.15,2013-05-15 21:38:00,
2013-05-15 16:43:00,83.1,60.8,29.92,West,281,1.0,13.0,47,0.00,,,0.00,Wunderground v.1.15,2013-05-15 21:43:00,
2013-05-15 16:48:00,82.9,60.6,29.92,West,275,4.0,13.0,47,0.00,,,0.00,Wunderground v.1.15,2013-05-15 21:48:00,
2013-05-15 16:53:00,82.3,60.1,29.92,SSW,197,4.0,10.0,47,0.00,,,0.00,Wunderground v.1.15,2013-05-15 21:53:00,
2013-05-15 16:58:00,81.7,60.7,29.92,West,274,3.0,10.0,49,0.00,,,0.00,Wunderground v.1.15,2013-05-15 21:58:00,
2013-05-15 17:04:00,81.2,60.8,29.92,WNW,287,4.0,10.0,50,0.00,,,0.00,Wunderground v.1.15,2013-05-15 22:04:00,
2013-05-15 17:09:00,80.8,61.5,29.92,WNW,299,5.0,10.0,52,0.00,,,0.00,Wunderground v.1.15,2013-05-15 22:09:00,
2013-05-15 17:14:00,80.6,61.9,29.93,WSW,243,4.0,10.0,53,0.00,,,0.00,Wunderground v.1.15,2013-05-15 22:14:00,
2013-05-15 17:19:00,80.4,61.2,29.93,WNW,291,3.0,12.0,52,0.00,,,0.00,Wunderground v.1.15,2013-05-15 22:19:00,
2013-05-15 17:24:00,80.2,61.5,29.93,WNW,285,8.0,10.0,53,0.00,,,0.00,Wunderground v.1.15,2013-05-15 22:24:00,
2013-05-15 17:29:00,80.1,61.4,29.92,West,274,3.0,5.0,53,0.00,,,0.00,Wunderground v.1.15,2013-05-15 22:29:00,
2013-05-15 17:34:00,80.1,62.0,29.92,West,267,4.0,8.0,54,0.00,,,0.00,Wunderground v.1.15,2013-05-15 22:34:00,
2013-05-15 17:39:00,80.2,62.0,29.92,WSW,250,2.0,8.0,54,0.00,,,0.00,Wunderground v.1.15,2013-05-15 22:39:00,
2013-05-15 17:45:00,80.1,62.0,29.92,West,271,5.0,8.0,54,0.00,,,0.00,Wunderground v.1.15,2013-05-15 22:45:00,
2013-05-15 17:50:00,79.9,62.3,29.92,WNW,293,7.0,7.0,55,0.00,,,0.00,Wunderground v.1.15,2013-05-15 22:50:00,
2013-05-15 17:55:00,79.8,62.2,29.92,WNW,283,2.0,7.0,55,0.00,,,0.00,Wunderground v.1.15,2013-05-15 22:55:00,
2013-05-15 18:00:00,79.6,62.0,29.92,WNW,297,2.0,4.0,55,0.00,,,0.00,Wunderground v.1.15,2013-05-15 23:00:00,
2013-05-15 18:05:00,79.3,61.7,29.92,WSW,249,0.0,5.0,55,0.00,,,0.00,Wunderground v.1.15,2013-05-15 23:05:00,
2013-05-15 18:10:00,79.1,61.5,29.92,West,270,2.0,4.0,55,0.00,,,0.00,Wunderground v.1.15,2013-05-15 23:10:00,
2013-05-15 18:15:00,78.9,61.4,29.92,West,264,2.0,4.0,55,0.00,,,0.00,Wunderground v.1.15,2013-05-15 23:15:00,
2013-05-15 18:21:00,78.8,60.7,29.92,WSW,253,3.0,6.0,54,0.00,,,0.00,Wunderground v.1.15,2013-05-15 23:21:00,
2013-05-15 18:26:00,78.7,60.1,29.91,WSW,243,1.0,7.0,53,0.00,,,0.00,Wunderground v.1.15,2013-05-15 23:26:00,
2013-05-15 18:32:00,78.6,59.0,29.91,WSW,238,3.0,3.0,51,0.00,,,0.00,Wunderground v.1.15,2013-05-15 23:32:00,
2013-05-15 18:37:00,78.4,57.7,29.91,WSW,258,2.0,4.0,49,0.00,,,0.00,Wunderground v.1.15,2013-05-15 23:37:00,
2013-05-15 18:42:00,78.3,56.4,29.91,WSW,255,4.0,6.0,47,0.00,,,0.00,Wunderground v.1.15,2013-05-15 23:42:00,
2013-05-15 18:48:00,78.2,56.9,29.91,West,263,3.0,6.0,48,0.00,,,0.00,Wunderground v.1.15,2013-05-15 23:48:00,
2013-05-15 18:53:00,78.0,54.9,29.91,West,263,2.0,5.0,45,0.00,,,0.00,Wunderground v.1.15,2013-05-15 23:53:00,
2013-05-15 18:58:00,77.9,55.5,29.91,WNW,283,3.0,5.0,46,0.00,,,0.00,Wunderground v.1.15,2013-05-15 23:58:00,
2013-05-15 19:03:00,77.6,54.6,29.91,West,264,2.0,3.0,45,0.00,,,0.00,Wunderground v.1.15,2013-05-16 00:03:00,
2013-05-15 19:08:00,77.5,54.5,29.91,WSW,248,3.0,3.0,45,0.00,,,0.00,Wunderground v.1.15,2013-05-16 00:08:00,
2013-05-15 19:13:00,77.3,54.3,29.91,West,272,0.0,3.0,45,0.00,,,0.00,Wunderground v.1.15,2013-05-16 00:13:00,
2013-05-15 19:19:00,77.0,53.4,29.91,WSW,250,0.0,3.0,44,0.00,,,0.00,Wunderground v.1.15,2013-05-16 00:19:00,
2013-05-15 19:24:00,76.8,53.8,29.91,West,269,2.0,3.0,45,0.00,,,0.00,Wunderground v.1.15,2013-05-16 00:24:00,
2013-05-15 19:29:00,76.5,53.6,29.92,SW,230,1.0,3.0,45,0.00,,,0.00,Wunderground v.1.15,2013-05-16 00:29:00,
2013-05-15 19:34:00,76.2,53.3,29.92,WSW,242,1.0,3.0,45,0.00,,,0.00,Wunderground v.1.15,2013-05-16 00:34:00,
2013-05-15 19:40:00,75.8,53.5,29.92,WSW,258,0.0,1.0,46,0.00,,,0.00,Wunderground v.1.15,2013-05-16 00:40:00,
2013-05-15 19:45:00,75.4,53.2,29.92,SW,230,0.0,1.0,46,0.00,,,0.00,Wunderground v.1.15,2013-05-16 00:45:00,
2013-05-15 19:50:00,75.0,53.4,29.92,SW,230,0.0,0.0,47,0.00,,,0.00,Wunderground v.1.15,2013-05-16 00:50:00,
2013-05-15 19:55:00,74.4,54.0,29.92,SW,225,0.0,1.0,49,0.00,,,0.00,Wunderground v.1.15,2013-05-16 00:55:00,
2013-05-15 20:00:00,73.8,54.5,29.92,SW,225,0.0,0.0,51,0.00,,,0.00,Wunderground v.1.15,2013-05-16 01:00:00,
2013-05-15 20:05:00,73.2,55.0,29.92,SW,225,1.0,1.0,53,0.00,,,0.00,Wunderground v.1.15,2013-05-16 01:05:00,
2013-05-15 20:10:00,72.5,54.9,29.92,SW,222,0.0,1.0,54,0.00,,,0.00,Wunderground v.1.15,2013-05-16 01:10:00,
2013-05-15 20:16:00,71.8,54.8,29.92,SW,222,0.0,1.0,55,0.00,,,0.00,Wunderground v.1.15,2013-05-16 01:16:00,
2013-05-15 20:21:00,71.2,54.7,29.93,SW,222,0.0,0.0,56,0.00,,,0.00,Wunderground v.1.15,2013-05-16 01:21:00,
2013-05-15 20:26:00,70.8,54.3,29.93,SW,222,0.0,1.0,56,0.00,,,0.00,Wunderground v.1.15,2013-05-16 01:26:00,
2013-05-15 20:32:00,70.2,54.7,29.93,SW,222,0.0,0.0,58,0.00,,,0.00,Wunderground v.1.15,2013-05-16 01:32:00,
2013-05-15 20:37:00,69.7,54.3,29.93,SW,222,0.0,1.0,58,0.00,,,0.00,Wunderground v.1.15,2013-05-16 01:37:00,
2013-05-15 20:42:00,69.7,54.3,29.92,SSW,211,1.0,1.0,58,0.00,,,0.00,Wunderground v.1.15,2013-05-16 01:42:00,
2013-05-15 20:48:00,69.8,54.4,29.92,SW,219,0.0,1.0,58,0.00,,,0.00,Wunderground v.1.15,2013-05-16 01:48:00,
2013-05-15 20:53:00,69.7,54.7,29.93,SW,219,0.0,1.0,59,0.00,,,0.00,Wunderground v.1.15,2013-05-16 01:53:00,
2013-05-15 20:58:00,69.4,54.4,29.93,SSW,210,0.0,1.0,59,0.00,,,0.00,Wunderground v.1.15,2013-05-16 01:58:00,